Change the Weather History Date:

Wednesday, March 26, 2014

  Actual Average (KBNO) Record (KBNO)
Temperature  
Mean Temperature 39 °F 40 °F  
Max Temperature 46 °F 52 °F 71 °F (1966)
Min Temperature 32 °F 27 °F 7 °F (1975)
Degree Days  
Heating Degree Days 26 25  
Month to date heating degree days 734  
Since 1 July heating degree days 6262  
Cooling Degree Days 0 0  
Month to date cooling degree days 0  
Year to date cooling degree days 0  
Moisture  
Dew Point 33 °F    
Average Humidity 83    
Maximum Humidity 100    
Minimum Humidity 53    
Precipitation  
Precipitation 0.08 in 0.03 in 0.74 in (1940)
Month to date precipitation 0.93  
Year to date precipitation 3.14  
Sea Level Pressure  
Sea Level Pressure 29.61 in    
Wind  
Wind Speed 4 mph (SSE)    
Max Wind Speed 16 mph    
Max Gust Speed 21 mph    
Visibility 9 miles    
Events Rain , Snow    
T = Trace of Precipitation, MM = Missing Value Source: NWS Daily Summary

Daily Weather History Graph

Daily Weather History Graph

Search for Another Location

Airport or City:

Trip Planner

Search our weather history database for the weather conditions in past years. The results will help you decide how hot, cold, wet, or windy it might be!

Date:

Astronomy

Mar. 26, 2014 Rise Set
Actual Time 6:47 AM PDT 7:15 PM PDT
Civil Twilight 6:18 AM PDT 7:45 PM PDT
Nautical Twilight 5:44 AM PDT 8:19 PM PDT
Astronomical Twilight 5:08 AM PDT 8:55 PM PDT
Moon 4:09 AM PDT (3/26) 2:51 PM PDT (3/26)
Length of Visible Light 13h 26m
Length of Day
12h 28m
Waning Crescent, 21% of the Moon is Illuminated
Mar 26
Waning Crescent
Mar 30
New
Apr 7
First Quarter
Apr 15
Full
Apr 22
Last Quarter

Hourly Weather History & Observations

Time (PDT) Temp. Windchill Dew Point Humidity Pressure Visibility Wind Dir Wind Speed Gust Speed Precip Events Conditions
12:35 AM 39.2 °F 35.9 °F 32.0 °F 75% 29.66 in 10.0 mi WSW 4.6 mph - N/A   Mostly Cloudy
12:55 AM 39.2 °F 35.9 °F 32.0 °F 75% 29.66 in 10.0 mi WSW 4.6 mph - N/A   Scattered Clouds
1:18 AM 37.4 °F 33.8 °F 32.0 °F 81% 29.67 in 10.0 mi WSW 4.6 mph - N/A   Scattered Clouds
1:35 AM 39.2 °F 37.0 °F 32.0 °F 75% 29.66 in 10.0 mi West 3.5 mph - N/A   Mostly Cloudy
1:55 AM 39.2 °F - 32.0 °F 75% 29.66 in 10.0 mi Calm Calm - N/A   Overcast
2:35 AM 39.2 °F 35.0 °F 33.8 °F 81% 29.66 in 10.0 mi WSW 5.8 mph - N/A   Overcast
2:55 AM 39.2 °F 37.0 °F 33.8 °F 81% 29.65 in 10.0 mi West 3.5 mph - N/A   Light Drizzle
3:17 AM 37.4 °F - 32.0 °F 81% 29.64 in 10.0 mi Calm Calm - N/A   Overcast
3:35 AM 37.4 °F - 32.0 °F 81% 29.64 in 10.0 mi Calm Calm - N/A   Mostly Cloudy
3:55 AM 37.4 °F - 32.0 °F 81% 29.63 in 10.0 mi Calm Calm - N/A   Overcast
4:17 AM 37.4 °F - 32.0 °F 81% 29.63 in 10.0 mi Calm Calm - N/A   Scattered Clouds
4:35 AM 37.4 °F 32.8 °F 30.2 °F 75% 29.63 in 10.0 mi South 5.8 mph - N/A   Scattered Clouds
4:55 AM 35.6 °F 29.2 °F 30.2 °F 81% 29.62 in 10.0 mi SSE 8.1 mph - N/A   Scattered Clouds
5:17 AM 35.6 °F 29.9 °F 30.2 °F 81% 29.63 in 10.0 mi SSE 6.9 mph - N/A   Mostly Cloudy
5:35 AM 35.6 °F 29.9 °F 30.2 °F 81% 29.62 in 10.0 mi SE 6.9 mph - N/A   Overcast
6:16 AM 35.6 °F 31.7 °F 30.2 °F 81% 29.62 in 10.0 mi ESE 4.6 mph - N/A   Scattered Clouds
6:35 AM 32.0 °F 24.8 °F 28.4 °F 87% 29.61 in 10.0 mi East 8.1 mph - N/A   Clear
6:57 AM 32.0 °F 24.8 °F 28.4 °F 87% 29.62 in 10.0 mi SE 8.1 mph - N/A   Clear
7:15 AM 33.8 °F 27.7 °F 30.2 °F 87% 29.61 in 10.0 mi SSE 6.9 mph - N/A   Clear
7:35 AM 35.6 °F 32.8 °F 30.2 °F 81% 29.62 in 10.0 mi NE 3.5 mph - N/A   Clear
8:15 AM 37.4 °F 33.8 °F 32.0 °F 81% 29.61 in 10.0 mi East 4.6 mph - N/A   Clear
8:35 AM 37.4 °F 31.4 °F 32.0 °F 81% 29.61 in 10.0 mi East 8.1 mph - N/A   Clear
9:15 AM 37.4 °F 32.8 °F 32.0 °F 81% 29.61 in 10.0 mi East 5.8 mph - N/A   Clear
10:15 AM 42.8 °F 39.3 °F 33.8 °F 70% 29.62 in 10.0 mi East 5.8 mph - N/A   Overcast
10:35 AM 44.6 °F 39.7 °F 33.8 °F 66% 29.61 in 10.0 mi ENE 9.2 mph - N/A   Overcast
10:58 AM 44.6 °F - 32.0 °F 61% 29.61 in 10.0 mi Calm Calm - N/A   Overcast
11:15 AM 46.4 °F 41.9 °F 30.2 °F 53% 29.61 in 10.0 mi South 9.2 mph 20.7 mph N/A   Overcast
11:58 AM 44.6 °F - 33.8 °F 66% 29.61 in 10.0 mi Calm Calm - N/A Rain Light Rain
12:15 PM 46.4 °F 45.2 °F 33.8 °F 62% 29.60 in 10.0 mi SSE 3.5 mph - N/A   Overcast
12:55 PM 42.8 °F 38.6 °F 37.4 °F 81% 29.59 in 5.0 mi NW 6.9 mph - N/A Rain Rain
1:15 PM 46.4 °F 45.2 °F 37.4 °F 71% 29.59 in 10.0 mi NNW 3.5 mph - N/A   Mostly Cloudy
1:55 PM 42.8 °F - 35.6 °F 76% 29.58 in 4.0 mi Calm Calm - N/A Rain Light Rain
2:55 PM 42.8 °F 41.1 °F 35.6 °F 76% 29.56 in 10.0 mi SE 3.5 mph - N/A   Overcast
3:55 PM 42.8 °F 39.3 °F 37.4 °F 81% 29.57 in 7.0 mi ESE 5.8 mph - N/A Rain Light Rain
4:55 PM 42.8 °F 39.3 °F 35.6 °F 76% 29.55 in 10.0 mi ESE 5.8 mph - N/A   Mostly Cloudy
5:15 PM 41.0 °F 33.1 °F 35.6 °F 81% 29.58 in 4.0 mi SSW 15.0 mph - 0.01 in Rain Rain
5:35 PM 39.2 °F 30.5 °F 35.6 °F 87% 29.58 in 4.0 mi SW 16.1 mph - 0.05 in Rain Rain
5:55 PM 37.4 °F 32.1 °F 35.6 °F 93% 29.56 in 10.0 mi SSE 6.9 mph - 0.05 in   Overcast
6:35 PM 37.4 °F 33.8 °F 35.6 °F 93% 29.56 in 10.0 mi ENE 4.6 mph - N/A   Clear
6:55 PM 39.2 °F 35.9 °F 35.6 °F 87% 29.56 in 10.0 mi ESE 4.6 mph - N/A   Scattered Clouds
7:35 PM 37.4 °F 33.8 °F 35.6 °F 93% 29.57 in 10.0 mi East 4.6 mph - N/A Rain Light Rain
7:55 PM 37.4 °F - 35.6 °F 93% 29.59 in 4.0 mi Calm Calm - 0.02 in Rain Rain
8:17 PM 35.6 °F 31.7 °F 33.8 °F 93% 29.59 in 5.0 mi SSE 4.6 mph - 0.01 in Rain Light Rain
8:35 PM 35.6 °F 31.7 °F 33.8 °F 93% 29.58 in 10.0 mi SE 4.6 mph - 0.01 in Rain Light Rain
8:55 PM 35.6 °F - 35.6 °F 100% 29.58 in 10.0 mi Calm Calm - 0.01 in   Overcast
9:15 PM 35.6 °F 31.7 °F 35.6 °F 100% 29.59 in 4.0 mi North 4.6 mph - N/A   Overcast
9:35 PM 35.6 °F - 35.6 °F 100% 29.61 in 4.0 mi Calm Calm - N/A Rain Rain
9:58 PM 33.8 °F 30.8 °F 33.8 °F 100% 29.62 in 3.0 mi West 3.5 mph - N/A Snow Light Snow
10:17 PM 33.8 °F 30.8 °F 33.8 °F 100% 29.61 in 7.0 mi South 3.5 mph - N/A Rain Light Rain
10:35 PM 35.6 °F 32.8 °F 33.8 °F 93% 29.61 in 10.0 mi SSW 3.5 mph - N/A   Overcast
11:15 PM 35.6 °F - 33.8 °F 93% 29.61 in 10.0 mi Calm Calm - N/A   Overcast
11:35 PM 35.6 °F - 33.8 °F 93% 29.62 in 10.0 mi Calm Calm - N/A   Overcast
11:58 PM 35.6 °F - 33.8 °F 93% 29.62 in 5.0 mi Calm Calm - N/A Rain Light Rain